Regional Weather Roundup
Issued by NWS

Home | Current Version | Previous Version | Graphics & Text | Print | Product List | Glossary Off
Versions: 1 2 3 4 5 6 7 8 9 10 11 12 13 14 15 16 17 18 19 20 21 22 23 24 25 26 27 28 29 30 31 32 33 34 35 36 37 38 39 40 41 42 43 44 45 46 47 48 49 50

000
ASUS43 KDTX 281910
RWRMI
MICHIGAN HOURLY REGIONAL WEATHER ROUNDUP
NATIONAL WEATHER SERVICE DETROIT/PONTIAC MI
300 PM EDT TUE MAR 28 2017

NOTE: "FAIR" INDICATES FEW OR NO CLOUDS BELOW 12,000 FEET WITH NO
SIGNIFICANT WEATHER AND/OR OBSTRUCTION TO VISIBILITY.

MIZ047>049-052>055-059>063-066>070-074>076-081>083-282000-
SOUTHEAST LOWER MICHIGAN

CITY           SKY/WX    TMP DP  RH WIND       PRES   REMARKS
ADRIAN         CLOUDY    46  40  79 N10       30.08R
ALMA           CLOUDY    45  38  75 NE6       30.13S
ANN ARBOR      CLOUDY    48  39  71 N9        30.07R
BAD AXE        CLOUDY    40  34  77 N10       30.12R WCI  34
CARO           CLOUDY    43  37  79 N9G17     30.11R
DETROIT CITY   CLOUDY    46  38  73 N12G21    30.08R
DETROIT        CLOUDY    48  39  71 N10       30.08R
FLINT          CLOUDY    44  36  73 N9        30.11R
GROSSE ILE     CLOUDY    48  39  71 N7        30.06R
HILLSDALE      CLOUDY    45  37  76 N5        30.06F
HOWELL         CLOUDY    42  37  82 N7        30.09S

CITY           SKY/WX    TMP DP  RH WIND       PRES   REMARKS
JACKSON        CLOUDY    46  37  71 NE9       30.08S
LAMBERTVILLE   CLOUDY    49  40  71 N8        30.07R
LANSING        CLOUDY    44  36  73 NE10      30.11F
LAPEER         CLOUDY    45  36  70 N5        30.09S
MASON          CLOUDY    43  39  85 N9        30.10S
MONROE         CLOUDY    48  41  75 N9        30.07R
MT. CLEMENS    PTSUNNY   48  40  73 N13       30.05S
PONTIAC        CLOUDY    44  37  76 N10       30.07R
PORT HOPE        N/A     40  35  83 NW5       30.11R
PORT HURON     MOSUNNY   45  36  70 N7        30.08R
TRI CITIES     CLOUDY    45  36  70 NE9       30.13S
MIDLAND        CLOUDY    46  36  68 CALM      30.12S
TROY           CLOUDY    46  37  72 N8        30.09S
SAGINAW HB     PTSUNNY   45  34  65 N14       30.12S
$$
MIZ043>046-050>051-056>058-064>065-071>073-077>080-282000-
SOUTHWEST LOWER MICHIGAN

CITY           SKY/WX    TMP DP  RH WIND       PRES   REMARKS
BATTLE CREEK   CLOUDY    46  39  76 NE12      30.10R
BENTON HARBOR  CLOUDY    42  37  82 VRB5      30.11S
BIG RAPIDS     SUNNY     50  34  53 NE5       30.11S
COLDWATER      CLOUDY    47  40  77 N6        30.08S
FREMONT        PTSUNNY   51  36  56 E6        30.11S
HOLLAND        CLOUDY    49  38  65 E10       30.11F
GRAND RAPIDS   CLOUDY    47  40  76 E10       30.11R
IONIA          CLOUDY    43  38  80 NE5       30.11S
KALAMAZOO      CLOUDY    48  38  68 NE8       30.10R
LUDINGTON      SUNNY     48  39  71 N10       30.13S
MARSHALL       CLOUDY    45  39  79 N5        30.08F
MOUNT PLEASANT MOSUNNY   48  35  60 N3        30.11S
MUSKEGON       CLOUDY    49  39  68 NW7       30.13R
SOUTH HAVEN    CLOUDY    43  38  83 NW8       30.10S
$$
MIZ016>042-282000-
NORTHERN LOWER MICHIGAN

CITY           SKY/WX    TMP DP  RH WIND       PRES   REMARKS
ALPENA         SUNNY     49  31  49 N7        30.14R
BEAVER ISLAND  SUNNY     42  34  72 N3        30.18F
BELLAIRE       SUNNY     47  35  63 NW8       30.15S
CADILLAC       SUNNY     50  33  52 N5        30.10F
CHARLEVOIX     CLOUDY    37  35  92 NW9       30.21S WCI  30
FRANKFORT      SUNNY     43  35  73 N10       30.17R
GAYLORD        SUNNY     48  29  47 CALM      30.13R
GRAYLING       SUNNY     50  30  46 N5        30.12S
HARBOR SPRINGS SUNNY     39  34  82 SW7       30.16S WCI  34
HOUGHTON LAKE  SUNNY     48  34  58 SW8       30.11S
MANISTEE       SUNNY     44  37  76 NW13      30.15S
OSCODA         SUNNY     46  32  58 E9G17     30.13S
PELLSTON       SUNNY     51  28  41 N8        30.15S
ROGERS CITY    SUNNY     41  34  76 N8        30.17R
TRAVERSE CITY  MOSUNNY   46  35  65 NE8       30.16S
$$
MIZ007>008-015-282000-
EASTERN UPPER MICHIGAN

CITY           SKY/WX    TMP DP  RH WIND       PRES   REMARKS
KINROSS        SUNNY     46  31  55 NW7       30.16R
MACKINAC ISLAN SUNNY     43  35  73 CALM      30.16S
NEWBERRY       SUNNY     48  30  49 CALM      30.15F
S. S. MARIE    SUNNY     45  34  65 SW8       30.14S
MUNISING         N/A     38  32  79 N5        30.18R WCI  34
$$
MIZ004>006-011>014-085-282000-
CENTRAL UPPER MICHIGAN

CITY           SKY/WX    TMP DP  RH WIND       PRES   REMARKS
MANISTIQUE     SUNNY     40  36  86 S7        30.17S WCI  35
ESCANABA       SUNNY     39  32  76 S8        30.18F WCI  33
MENOMINEE        N/A    N/A N/A N/A MISG        N/A
SAWYER-GWINN   SUNNY     54  30  40 CALM      30.16R
$$
MIZ001>003-009>011-084-282000-
WESTERN UPPER MICHIGAN

CITY           SKY/WX    TMP DP  RH WIND       PRES   REMARKS
IRON MOUNTAIN  SUNNY     55  29  36 CALM      30.14S
HOUGHTON       SUNNY     46  31  55 NW7       30.17S
COPPER HARBOR    N/A     38  33  82 N10       30.20R WCI  31
IRONWOOD       SUNNY     57  29  34 N6        30.16S
$$

ABBREVIATIONS USED IN REMARKS
   TC - TEMPERATURE IN CELSIUS
  WCI - WIND CHILL INDEX
   HX - HEAT INDEX
  VSB - VISIBILITY





USA.gov is the U.S. government's official web portal to all federal, state and local government web resources and services.